User: anonymous   Login
Location: Unspecified
(0.0000°N, 0.0000°E)
Time: 06:39:47
(UTC+00:00)
Language:

IBEX - Orbit

View from above orbital plane
View from above orbital plane
View from above satellite
View from above satellite

Ground track
Ground track

The orbit data is extracted from the following two-line orbital elements,

1 33401U 08051A   14295.54202544 -.00000781  00000-0  00000+0 0  1158
2 33401 004.6857 164.1824 4701973 334.6714 000.1581 00.10004665  2579
Epoch (UTC): 22 October 2014 13:00:30
Eccentricity: 0.4701973
inclination: 4.6857°
perigee height: 97464 km
apogee height: 281784 km
right ascension of ascending node: 164.1824°
argument of perigee: 334.6714°
revolutions per day: 0.10004665
mean anomaly at epoch: 0.1581°
orbit number at epoch: 257

The dashed part of the orbit path shows where the satellite is in the earth's shadow,  

DLR